Weather History for Whiteman AFB, MO

Change the Weather History Date:

Sunday, October 14, 2012

  Actual Average Record
Temperature  
Mean Temperature 60 °F -  
Max Temperature 69 °F 66 °F 82 °F (2005)
Min Temperature 48 °F 45 °F 33 °F (2006)
Degree Days  
Heating Degree Days 5    
Growing Degree Days 10 (Base 50)    
Moisture  
Dew Point 56 °F    
Average Humidity 82    
Maximum Humidity 100    
Minimum Humidity 42    
Precipitation  
Precipitation 0.05 in - - ()
Sea Level Pressure  
Sea Level Pressure 29.74 in    
Wind  
Wind Speed 14 mph (WSW)    
Max Wind Speed 23 mph    
Max Gust Speed 30 mph    
Visibility 10 miles    
Events Rain    
Averages and records for this station are not official NWS values.
T = Trace of Precipitation, MM = Missing Value Source: NWS Daily Summary

Daily Weather History Graph

Daily Weather History Graph

Search for Another Location

Airport:

Trip Planner

Search our weather history database for the weather conditions in past years. The results will help you decide how hot, cold, wet, or windy it might be!

Date:

Astronomy

Oct. 14, 2012 Rise Set
Actual Time 7:22 AM CDT 6:36 PM CDT
Civil Twilight 6:56 AM CDT 7:03 PM CDT
Nautical Twilight 6:25 AM CDT 7:34 PM CDT
Astronomical Twilight 5:54 AM CDT 8:04 PM CDT
Moon 6:22 AM CDT (10/14) 5:57 PM CDT (10/14)
Length of Visible Light 12h 07m
Length of Day
11h 13m
Waning Crescent, 1% of the Moon is Illuminated
Oct 14
Waning Crescent
Oct 15
New
Oct 21
First Quarter
Oct 29
Full
Nov 6
Last Quarter

Hourly Weather History & Observations

Time (CDT) Temp. Dew Point Humidity Pressure Visibility Wind Dir Wind Speed Gust Speed Precip Events Conditions
12:00 AM 64.4 °F 64.4 °F 100% 29.67 in 9.0 mi SSE 16.1 mph 25.3 mph N/A Rain Light Rain
12:25 AM 64.4 °F 64.4 °F 100% 29.64 in 10.0 mi SSE 15.0 mph 19.6 mph N/A   Mostly Cloudy
12:55 AM 63.1 °F 63.1 °F 100% 29.65 in 10.0 mi South 13.8 mph - 0.05 in   Partly Cloudy
1:55 AM 63.0 °F 63.0 °F 100% 29.64 in 10.0 mi SSW 11.5 mph - N/A   Overcast
2:39 AM 62.6 °F 62.6 °F 100% 29.62 in 10.0 mi South 12.7 mph 21.9 mph N/A   Mostly Cloudy
2:55 AM 63.5 °F 63.5 °F 100% 29.61 in 10.0 mi South 15.0 mph - N/A   Overcast
3:03 AM 64.4 °F 64.4 °F 100% 29.61 in 10.0 mi South 15.0 mph - N/A   Overcast
3:55 AM 63.9 °F 63.9 °F 100% 29.57 in 10.0 mi South 15.0 mph - N/A   Mostly Cloudy
4:10 AM 64.4 °F 64.4 °F 100% 29.58 in 10.0 mi South 13.8 mph 23.0 mph N/A   Overcast
4:20 AM 64.4 °F 64.4 °F 100% 29.58 in 10.0 mi South 17.3 mph 21.9 mph N/A   Overcast
4:55 AM 64.2 °F 64.2 °F 100% 29.57 in 10.0 mi South 13.8 mph 20.7 mph N/A   Overcast
5:55 AM 64.0 °F 64.0 °F 100% 29.56 in 10.0 mi SSW 17.3 mph 23.0 mph N/A   Mostly Cloudy
6:04 AM 64.4 °F 64.4 °F 100% 29.56 in 10.0 mi SSW 16.1 mph 23.0 mph N/A   Mostly Cloudy
6:19 AM 64.4 °F 64.4 °F 100% 29.58 in 10.0 mi SW 16.1 mph 24.2 mph N/A   Overcast
6:55 AM 63.9 °F 63.9 °F 100% 29.61 in 10.0 mi SW 13.8 mph - N/A   Overcast
7:07 AM 64.4 °F 62.6 °F 94% 29.62 in 10.0 mi SW 12.7 mph - N/A   Overcast
7:38 AM 62.6 °F 62.6 °F 100% 29.63 in 10.0 mi SW 9.2 mph - N/A   Scattered Clouds
7:55 AM 62.1 °F 62.1 °F 100% 29.63 in 10.0 mi SW 8.1 mph - N/A   Partly Cloudy
8:55 AM 63.0 °F 62.8 °F 99% 29.67 in 10.0 mi WSW 10.4 mph - N/A   Partly Cloudy
9:55 AM 63.9 °F 56.5 °F 77% 29.71 in 10.0 mi WNW 15.0 mph 27.6 mph N/A   Clear
10:07 AM 62.6 °F 55.4 °F 77% 29.73 in 10.0 mi NW 12.7 mph 29.9 mph N/A   Mostly Cloudy
10:55 AM 61.3 °F 53.8 °F 76% 29.77 in 10.0 mi WNW 19.6 mph 27.6 mph N/A   Overcast
11:05 AM 62.6 °F 53.6 °F 72% 29.78 in 10.0 mi WNW 20.7 mph 26.5 mph N/A   Overcast
11:38 AM 60.8 °F 53.6 °F 77% 29.81 in 10.0 mi WNW 13.8 mph - N/A   Overcast
11:55 AM 62.4 °F 55.0 °F 77% 29.82 in 10.0 mi WNW 17.3 mph 23.0 mph N/A   Mostly Cloudy
12:09 PM 64.4 °F 55.4 °F 73% 29.82 in 10.0 mi West 18.4 mph 23.0 mph N/A   Mostly Cloudy
12:39 PM 64.4 °F 55.4 °F 73% 29.84 in 10.0 mi WNW 23.0 mph 27.6 mph N/A   Mostly Cloudy
12:55 PM 64.8 °F 53.8 °F 68% 29.85 in 10.0 mi NW 19.6 mph 27.6 mph N/A   Scattered Clouds
1:55 PM 67.3 °F 52.0 °F 58% 29.86 in 10.0 mi WNW 20.7 mph 26.5 mph N/A   Scattered Clouds
2:55 PM 68.9 °F 48.0 °F 47% 29.86 in 10.0 mi WNW 20.7 mph 26.5 mph N/A   Clear
3:55 PM 68.7 °F 45.0 °F 42% 29.88 in 10.0 mi WNW 15.0 mph 25.3 mph N/A   Clear
4:55 PM 67.6 °F 43.9 °F 42% 29.90 in 10.0 mi NW 15.0 mph 24.2 mph N/A   Clear
5:55 PM 65.8 °F 43.2 °F 44% 29.93 in 10.0 mi NW 16.1 mph - N/A   Clear
6:55 PM 62.2 °F 42.6 °F 49% 29.95 in 10.0 mi WNW 9.2 mph - N/A   Clear
7:55 PM 57.2 °F 43.3 °F 60% 29.96 in 10.0 mi West 5.8 mph - N/A   Clear
8:55 PM 54.1 °F 43.9 °F 68% 29.98 in 10.0 mi West 4.6 mph - N/A   Clear
9:55 PM 54.0 °F 43.3 °F 67% 29.99 in 10.0 mi West 3.5 mph - N/A   Clear
10:55 PM 52.7 °F 43.7 °F 71% 29.99 in 10.0 mi SW 4.6 mph - N/A   Clear
11:55 PM 48.2 °F 44.1 °F 86% 29.99 in 10.0 mi SW 3.5 mph - N/A   Clear